Vertical_Velocity
-1 -0 0 -0 -0 -0 -1 0 -0 -1 -1 -1 -1 -0 -1 -1 -1 -1 -4 1 -1 0 -1 -0 -1 5 -1 -2 1 -2 -5 -0 -0 -1 -3 -1 0 7 3 -7 4 2 -2 -3 -2
-0 -1 -1 0 0 -0 -1 -0 0 -0 -0 -0 -1 -1 -1 -1 -2 -3 4 1 0 2 -3 -0 -1 4 -2 -1 -1 -2 -2 -3 -2 -1 -1 0 -2 -3 -2 2 0 0 5 0 0
-1 -1 -0 0 -0 -0 -1 -2 -1 -1 -0 0 -1 -1 -1 -1 -1 -0 1 1 1 1 -3 -1 2 0 -0 0 -1 -0 -1 -0 0 -2 -0 0 0 -0 -3 1 -3 -9 -5 -3 -1
-0 -1 -1 -1 -0 -0 -0 -1 -1 -2 -2 -1 -0 -1 -0 -1 -6 1 4 1 1 2 -1 -2 -0 -1 -0 0 0 1 0 -2 0 -3 -1 -0 -1 0 -2 -4 -2 2 1 -4 -6
1 0 -0 -0 -1 -1 -1 -1 -1 -1 -1 -1 -1 -0 -0 -0 -1 3 1 1 1 1 0 -5 -2 0 -0 1 -1 1 -0 1 1 4 -0 0 1 -1 -0 -0 -1 0 2 -0 -0
1 1 1 1 2 1 -0 -1 -1 -1 -0 -1 -2 1 -0 -1 1 1 -1 1 0 0 -1 -4 -1 1 -1 -0 1 -1 1 1 2 1 1 -2 1 -3 2 -0 2 -0 -2 -0 -3
0 1 1 1 1 1 0 -1 -1 -2 -2 -1 -2 -1 -1 0 1 1 1 1 3 1 -1 2 2 1 1 1 2 1 -3 -0 0 0 -1 -2 -2 -1 -0 3 -1 -0 -2 1 -2
0 1 -0 -0 0 1 1 -0 -0 -1 -1 -1 -2 -1 -4 -0 0 0 2 0 -1 -1 5 3 1 1 -0 6 -3 -3 -4 -1 -2 1 -1 -1 -4 -2 2 -3 -0 2 2 -0 -6
0 0 1 1 -0 0 0 1 1 0 0 -1 -1 -0 -4 1 -3 3 2 1 2 1 2 3 2 0 1 -3 -3 -2 -1 1 -0 -1 0 -1 -2 -2 3 2 1 -1 -3 -3 -1
-0 -0 1 -0 -1 0 -1 0 0 0 0 0 1 -1 1 1 -1 -1 4 3 1 2 3 2 -0 -2 -2 -3 -5 -2 0 0 -1 -2 1 1 -1 -0 3 2 -3 -1 -0 -0 -5
-0 -0 0 -1 -2 0 -0 1 1 0 0 -5 0 -2 1 2 3 1 1 4 3 1 -2 -0 -5 -2 -4 -1 -1 -1 0 -0 -1 -0 -3 -2 -0 -2 -1 3 2 0 0 0 -8
-1 -1 0 -0 -1 1 1 -2 -4 -2 -13 2 2 -4 -1 -1 -4 3 3 -1 0 -1 -0 -8 -2 -4 -0 0 0 0 0 -2 -2 1 -2 0 -3 -1 -0 -5 -7 -5 -2 1 6
-1 -3 -3 -1 0 1 1 2 1 3 1 -6 0 -2 -4 2 -5 -7 1 0 -2 0 -0 -4 -7 -1 -1 1 1 -0 -1 -1 -3 1 -1 -1 -5 3 0 2 4 4 -1 2 -1
-1 -3 -4 -3 -1 -0 3 4 2 4 -6 -14 -2 -2 -0 3 -5 4 3 -9 2 -6 -1 -2 -3 -0 1 -0 -3 1 -2 0 0 -2 -4 -4 -7 -2 -0 -0 1 1 -2 -1 -8
-0 -1 -3 -4 -0 -1 1 0 2 2 -6 -10 -1 7 6 -9 0 1 2 8 -3 -2 -9 -16 0 1 1 -7 -2 -12 0 -1 -1 -1 -4 -1 -3 -11 0 -0 -2 -1 -2 -2 -2
-0 -2 -4 -4 -1 2 2 1 5 -20 -14 -4 0 -1 -0 2 1 2 0 6 3 -1 0 -4 1 -2 -7 -0 -2 -1 -3 -3 -2 -2 -4 -3 -5 -9 -1 -2 -1 0 -2 -3 -3
-0 4 -5 -2 -3 -4 -1 2 -13 -5 -12 -3 -0 0 -1 0 1 -0 -0 2 -6 -4 -1 -3 -2 -1 -1 -3 -1 -4 -4 -4 -6 -5 -7 -0 -3 -13 -1 -1 -1 -2 -1 1 -2
-1 -0 0 1 0 -0 1 -9 0 -5 -1 -3 -0 -1 -3 -3 -1 1 0 -0 0 -2 -1 -2 -12 -2 -1 -6 -10 -1 -6 -9 -4 -3 -4 -1 -3 -12 -1 0 1 1 1 2 -0
-3 -0 1 -2 1 3 1 -2 -9 -2 1 1 -5 0 0 1 -3 -1 -1 -2 -4 -4 -8 -2 -5 -2 0 -0 -12 -1 -2 -6 -6 -1 -4 -3 -7 -7 -1 -1 -0 1 1 0 -1
-6 -2 -1 -1 2 4 -7 -4 -1 0 0 -3 -0 -1 0 0 -1 -0 -1 -6 -2 -4 -1 -4 -3 -1 -2 -3 -1 -8 -7 -9 -5 -4 -0 -3 -1 -5 -2 -1 0 -1 1 0 0
-3 -1 3 0 2 1 -4 -4 -0 -0 0 0 1 -1 -0 0 0 -0 -5 -7 0 1 -1 -2 -6 -6 -1 -2 -4 -2 -1 -5 -9 -4 -6 -2 -8 -5 -3 -1 0 -0 -1 -1 0
-1 -4 1 -1 -6 0 -1 0 2 -1 2 -1 -0 0 -0 -0 0 1 -2 -4 2 -5 -2 -3 -4 -1 -0 -1 0 -1 -1 -3 -8 -3 -1 -4 -13 -1 -1 -0 1 1 -0 -0 1
-1 -1 1 1 -4 -1 -3 -1 1 -1 0 -2 -0 -1 -0 -1 -1 1 -0 -3 0 -2 -8 -7 -3 -3 -9 -13 -4 -3 1 -1 -1 -3 -2 -6 -12 -0 0 0 -1 -0 -1 -0 -2
-0 -5 0 2 1 -2 -0 -2 -2 1 1 -0 -0 -3 -2 -0 -0 -3 -1 -2 3 -0 1 -6 -1 -8 -11 -13 -4 -0 0 0 -4 -3 -3 -5 -2 -0 0 -1 -1 -1 1 0 2
-0 0 1 -3 -3 -0 0 1 -0 -2 -0 0 -0 -2 -0 -0 -1 -1 -1 -1 -1 0 -0 -5 -3 -1 0 -0 -0 -1 -1 0 -0 -2 -6 -5 -1 -4 -2 -2 -3 -3 -0 0 1
-0 -1 -1 -1 0 0 -1 -1 0 -2 2 -3 1 -0 0 -0 -1 -1 1 0 -3 -0 -1 -1 -3 -1 0 0 -0 0 0 0 -0 1 0 -0 -2 -2 -1 2 0 -0 -0 -0 1
2 0 2 0 -0 1 -3 -0 -0 2 -6 -0 2 2 1 -5 2 -3 1 -5 -1 2 0 -2 -3 -2 -1 -0 -1 -4 -4 -1 -0 0 -6 -2 -9 -0 0 -0 1 -2 -2 -3 -2
Height
1517 1515 1513 1511 1510 1509 1507 1506 1504 1503 1502 1501 1499 1498 1497 1496 1496 1496 1496 1498 1499 1501 1502 1503 1505 1506 1507 1507 1507 1507 1516 1525 1521 1523 1519 1516 1518 1520 1520 1522 1524 1525 1525 1527 1530
1517 1515 1513 1511 1510 1508 1506 1505 1504 1502 1501 1500 1498 1497 1496 1495 1494 1493 1495 1495 1498 1500 1502 1503 1504 1506 1508 1508 1508 1509 1516 1518 1514 1515 1516 1514 1516 1519 1522 1524 1524 1524 1526 1529 1532
1517 1515 1513 1511 1509 1507 1506 1504 1503 1502 1500 1499 1497 1496 1495 1494 1493 1492 1492 1494 1497 1500 1502 1503 1505 1507 1508 1508 1509 1510 1513 1511 1513 1514 1514 1515 1516 1518 1521 1525 1522 1522 1526 1530 1534
1517 1515 1513 1511 1509 1507 1505 1503 1502 1500 1499 1498 1496 1495 1494 1494 1498 1492 1492 1493 1496 1499 1502 1503 1505 1507 1508 1508 1508 1511 1509 1510 1512 1513 1515 1515 1517 1517 1518 1520 1522 1525 1527 1530 1534
1517 1515 1512 1510 1508 1506 1504 1502 1500 1499 1498 1497 1495 1494 1493 1493 1492 1493 1493 1493 1495 1498 1501 1503 1505 1505 1506 1506 1508 1508 1506 1509 1510 1511 1514 1516 1517 1518 1520 1520 1523 1527 1530 1531 1535
1517 1514 1512 1509 1507 1505 1502 1500 1498 1497 1496 1495 1494 1493 1493 1494 1492 1492 1492 1493 1495 1498 1500 1503 1504 1505 1504 1505 1506 1504 1507 1509 1510 1512 1514 1516 1518 1518 1521 1520 1524 1527 1529 1532 1535
1516 1513 1510 1507 1505 1502 1500 1498 1497 1495 1494 1494 1492 1492 1492 1492 1491 1492 1491 1493 1495 1497 1499 1502 1503 1505 1504 1503 1505 1506 1511 1512 1513 1514 1516 1517 1521 1520 1520 1521 1523 1526 1529 1532 1534
1515 1512 1509 1506 1503 1501 1498 1496 1495 1493 1493 1493 1492 1492 1489 1490 1490 1491 1492 1493 1495 1497 1499 1501 1502 1503 1503 1504 1506 1510 1513 1523 1512 1514 1515 1519 1529 1516 1519 1521 1523 1527 1528 1530 1532
1514 1511 1507 1505 1501 1499 1496 1493 1492 1491 1491 1491 1492 1491 1489 1489 1490 1491 1493 1494 1496 1497 1499 1500 1501 1501 1502 1507 1516 1515 1526 1522 1514 1513 1515 1519 1524 1515 1517 1520 1523 1526 1528 1529 1531
1513 1510 1506 1503 1499 1496 1493 1492 1491 1490 1490 1489 1489 1492 1488 1488 1488 1489 1492 1494 1495 1497 1498 1500 1500 1504 1507 1513 1533 1523 1521 1516 1517 1513 1515 1517 1519 1516 1517 1519 1521 1522 1526 1527 1528
1512 1508 1505 1501 1498 1495 1493 1491 1494 1492 1488 1485 1485 1484 1484 1486 1485 1486 1490 1492 1494 1495 1499 1499 1507 1513 1505 1506 1505 1508 1512 1514 1507 1506 1512 1514 1517 1517 1516 1518 1519 1520 1521 1524 1524
1510 1507 1503 1500 1496 1494 1493 1492 1493 1496 1486 1479 1479 1479 1480 1483 1485 1485 1488 1492 1493 1498 1498 1505 1511 1501 1501 1503 1505 1508 1513 1516 1503 1505 1508 1512 1512 1511 1513 1512 1512 1515 1517 1520 1523
1508 1505 1501 1498 1494 1494 1492 1493 1493 1491 1489 1473 1472 1473 1476 1479 1481 1482 1486 1488 1491 1497 1500 1508 1500 1495 1501 1504 1509 1509 1515 1511 1510 1509 1509 1510 1515 1511 1508 1508 1508 1510 1513 1516 1518
1506 1503 1499 1496 1495 1493 1492 1493 1491 1489 1497 1478 1469 1468 1472 1475 1478 1478 1481 1486 1489 1495 1500 1500 1493 1495 1500 1502 1504 1509 1498 1500 1505 1513 1529 1513 1541 1512 1505 1504 1503 1506 1508 1510 1514
1503 1500 1498 1494 1493 1493 1493 1492 1491 1490 1520 1468 1467 1467 1469 1473 1472 1473 1477 1482 1487 1490 1496 1498 1490 1493 1498 1494 1493 1499 1492 1497 1502 1515 1520 1522 1533 1514 1505 1504 1501 1500 1502 1506 1509
1501 1498 1494 1492 1489 1490 1489 1490 1491 1506 1512 1469 1463 1466 1470 1470 1470 1473 1476 1480 1482 1487 1489 1490 1484 1486 1484 1481 1484 1488 1498 1505 1517 1526 1540 1525 1528 1520 1505 1500 1495 1492 1495 1498 1504
1497 1494 1490 1487 1486 1487 1488 1489 1505 1515 1475 1472 1468 1465 1468 1471 1471 1471 1477 1482 1490 1501 1500 1490 1484 1477 1477 1484 1485 1493 1507 1543 1542 1548 1546 1525 1529 1515 1499 1495 1492 1487 1488 1491 1497
1492 1488 1485 1482 1480 1482 1486 1491 1507 1488 1485 1470 1468 1467 1472 1470 1471 1474 1479 1487 1482 1486 1504 1504 1505 1478 1473 1479 1489 1494 1501 1534 1541 1555 1539 1528 1534 1509 1493 1490 1487 1484 1483 1487 1493
1488 1484 1480 1478 1476 1479 1484 1501 1495 1488 1480 1477 1471 1472 1472 1467 1470 1474 1480 1482 1477 1480 1497 1505 1496 1473 1471 1473 1477 1494 1506 1502 1532 1540 1539 1533 1512 1496 1491 1490 1488 1484 1484 1487 1490
1486 1481 1479 1475 1474 1479 1486 1494 1487 1482 1479 1478 1483 1479 1479 1473 1474 1478 1481 1467 1469 1468 1472 1481 1493 1474 1471 1471 1478 1483 1490 1512 1524 1540 1538 1536 1521 1518 1496 1491 1488 1487 1485 1487 1490
1485 1482 1482 1480 1481 1483 1493 1492 1485 1480 1480 1481 1481 1483 1479 1477 1474 1476 1473 1462 1460 1464 1468 1478 1484 1482 1475 1479 1487 1492 1498 1508 1515 1526 1541 1544 1529 1496 1493 1489 1488 1489 1487 1486 1487
1485 1485 1485 1483 1485 1489 1491 1487 1483 1480 1478 1478 1478 1480 1480 1476 1478 1475 1471 1459 1450 1457 1471 1469 1485 1494 1484 1478 1476 1478 1489 1501 1520 1524 1535 1530 1521 1487 1488 1486 1487 1487 1486 1485 1485
1488 1486 1486 1485 1492 1493 1487 1485 1483 1481 1480 1480 1479 1475 1475 1477 1481 1471 1462 1447 1449 1452 1460 1465 1487 1503 1496 1490 1480 1484 1486 1499 1507 1514 1526 1528 1518 1487 1487 1487 1487 1487 1487 1487 1487
1492 1491 1487 1486 1488 1490 1491 1487 1485 1481 1480 1481 1479 1476 1479 1477 1472 1467 1458 1450 1448 1447 1451 1455 1483 1485 1502 1492 1485 1488 1484 1492 1499 1515 1519 1515 1497 1489 1487 1488 1485 1485 1487 1488 1488
1494 1495 1496 1495 1492 1492 1492 1490 1486 1485 1480 1479 1479 1480 1482 1486 1475 1471 1460 1454 1450 1448 1451 1455 1478 1478 1479 1478 1478 1480 1482 1487 1491 1495 1498 1493 1497 1485 1483 1486 1485 1485 1486 1487 1489
1497 1497 1496 1494 1493 1493 1491 1488 1487 1486 1483 1481 1480 1478 1479 1481 1476 1473 1470 1461 1451 1450 1452 1457 1484 1476 1483 1480 1480 1481 1478 1481 1485 1491 1489 1493 1491 1479 1480 1482 1483 1483 1484 1486 1487
1497 1497 1496 1494 1494 1494 1491 1489 1487 1487 1480 1478 1478 1478 1475 1471 1467 1467 1465 1461 1462 1461 1456 1459 1475 1487 1492 1485 1485 1495 1483 1480 1481 1480 1484 1492 1482 1478 1479 1479 1480 1482 1482 1484 1486